Weather in Kul'chini

Ukraine / Khmelnitsky District     49°45′24″N   26°54′53″E
temp.,
°C
wind,
m/s
gust,
m/s
humid.,
%
clouds,
%
prec.,
mm/h
press.,
hPa
HPBL,
m
17 september, fri
fri1700:00+18s41152100 0.1 1014300
03:00+16sse4126375 0.4 1013268
06:00+15s356399 0.0 1011129
09:00+17s476786 0.0 1010259
12:00+20s356281 0.2 1009549
15:00+25ssw4646100 0.3 10061914
18:00+21sw6970100 0.6 1005254
21:00+16wsw369596 4.4 1006225
18 september, sat
sat1800:00+16s2494100 0.2 1005146
03:00+16ssw379691 0.4 1003303
06:00+13w81495100 2.6 1004718
09:00+13wnw81491100 2.6 1005781
12:00+14wnw61190100 0.1 1006837
15:00+14w71286100 0.2 1007967
18:00+14wnw5979100 0.3 10071071
21:00+13wsw3889100 0.3 1008590
19 september, sun
sun1900:00+11w489393 0.2 1008487
03:00+12wsw3792100 0.3 1007600
06:00+9wnw5990100 0.4 1008630
09:00+6w5992100 4.3 1009841
12:00+6w6990100 0.4 1010951
15:00+7w6888100 0.6 10101085
18:00+6w6989100 0.3 10101098
21:00+6w6991100 0.4 10111097
20 september, mon
mon2000:00+5w61197100 0.8 1011824
03:00+5wnw71296100 1.1 1011670
06:00+5wnw71297100 0.3 1011580
09:00+6wnw71297100 0.9 1013611
12:00+6wnw61195100 0.1 1014603
15:00+7wnw6990100 0.1 1015708
18:00+6wnw5989100 0.1 1016799
21:00+6wnw4989100 0.1 1017649
21 september, tue
tue2100:00+5wnw4988100 0.0 1018637
03:00+5wnw5988100 0.0 1018673
06:00+5w51086100 0.0 1018771
09:00+6wnw61180100 0.0 1017938
12:00+6wnw71181100 0.1 10181295
15:00+4wnw61194100 0.4 1019845
18:00+4wnw71194100 0.1 10191026
21:00+5wnw61094100 0.2 1020965